SCP
0 0 0 0 0 0 0 0 0 0 0 0 0 0 0 0 0 0 0 0 0 0 0 0 0 0 0 0 0 0 0 0 0 0 0 0 0 0 0 0 0 0 0 0
0 0 0 0 0 0 0 0 0 0 0 0 0 0 0 0 0 0 0 0 0 0 0 0 0 0 0 0 0 0 0 0 0 0 0 0 0 0 0 0 0 0 0 0
0 0 0 0 0 0 0 0 0 0 0 0 0 0 0 0 0 0 0 0 0 0 0 0 0 0 0 0 0 0 0 0 0 0 0 0 0 0 0 0 0 0 0 0
0 0 0 0 0 0 0 0 0 0 0 0 0 0 0 0 0 0 0 0 0 0 0 0 0 0 0 0 0 0 0 0 0 0 0 0 0 0 0 0 0 0 0 0
0 0 0 0 0 0 0 0 0 0 0 0 0 0 0 0 0 0 0 0 0 0 0 0 0 0 0 0 0 0 0 0 0 0 0 0 0 0 0 0 0 0 0 0
0 0 0 0 0 0 0 0 0 0 0 0 0 0 0 0 0 0 0 0 0 0 0 0 0 0 0 0 0 0 0 0 0 0 0 0 0 0 0 0 0 0 0 0
0 0 0 0 0 0 0 0 0 0 0 0 0 0 0 0 0 0 0 0 0 0 0 0 0 0 0 0 0 0 0 0 0 0 0 0 0 0 0 0 0 0 0 0
0 0 0 0 0 0 0 0 0 0 0 0 0 0 0 0 0 0 0 0 0 0 0 0 0 0 0 0 0 0 0 0 0 0 0 0 0 0 0 0 0 0 0 0
0 0 0 0 0 0 0 0 0 0 0 0 0 0 0 0 0 0 0 0 0 0 0 0 0 0 0 0 0 0 0 0 0 0 0 0 0 0 0 0 0 0 0 0
0 0 0 0 0 0 0 0 0 0 0 0 0 0 0 0 0 0 0 0 0 0 0 0 0 0 0 0 0 0 0 0 0 0 0 0 0 0 0 0 0 0 0 0
0 0 0 0 0 0 0 0 0 0 0 0 0 0 0 0 0 0 0 0 0 0 0 0 0 0 0 0 0 0 0 0 0 0 0 0 0 0 0 0 0 0 0 0
0 0 0 0 0 0 0 0 0 0 0 0 0 0 0 0 0 0 0 0 0 0 0 0 0 0 0 0 0 0 0 0 0 0 0 0 0 0 0 0 0 0 0 0
0 0 0 0 0 0 0 0 0 0 0 0 0 0 -0 0 0 0 0 0 0 0 0 0 0 0 0 0 0 0 0 0 0 0 0 0 0 0 0 0 0 0 0 0
0 0 0 0 0 0 0 0 0 0 0 0 0 0 0 0 0 0 0 0 0 0 0 0 0 0 0 0 0 0 0 0 0 0 0 0 0 0 0 0 0 0 0 0
0 0 0 0 0 0 0 0 0 0 0 0 0 0 0 0 0 0 0 0 0 0 0 0 0 0 0 0 0 0 0 0 0 0 0 0 0 0 0 0 0 0 0 0
0 0 0 0 0 0 -0 0 0 0 0 0 0 0 0 0 0 0 0 0 0 0 0 0 0 0 0 0 0 0 0 0 0 0 0 0 0 0 0 0 0 0 0 0
-0 -0 -0 -0 -0 -0 -0 0 0 0 0 0 0 0 0 0 0 0 0 0 0 0 0 0 0 0 0 0 0 0 0 0 0 0 0 0 0 0 0 0 0 0 0 0
0 0 -0 -0 -0 0 0 0 0 0 0 0 0 0 0 0 0 0 0 0 0 0 0 0 0 0 0 0 0 0 0 0 0 0 0 0 0 0 0 0 0 0 0 0
0 0 0 0 0 0 0 0 0 0 0 0 0 0 0 0 0 0 0 0 0 0 0 0 0 0 0 0 0 0 0 0 0 0 0 0 0 0 0 0 0 0 0 0
0 0 0 0 0 0 0 0 0 0 0 0 0 0 0 0 0 0 0 0 0 0 0 0 0 0 0 0 0 0 0 0 0 0 0 0 0 0 0 0 0 0 0 0
0 0 0 0 0 0 0 0 0 0 0 0 0 0 0 0 0 0 0 0 0 0 0 0 0 0 0 0 0 0 0 0 0 0 0 0 0 0 0 0 0 0 0 0
0 0 0 0 0 0 0 0 0 0 0 0 0 0 0 0 0 0 0 0 0 0 0 0 0 0 0 0 0 0 0 0 0 0 0 0 0 0 0 0 0 0 0 0
0 0 0 0 0 0 0 0 0 0 0 0 0 0 0 0 0 0 0 0 0 0 0 0 0 0 0 0 0 0 0 0 0 0 0 0 0 0 0 0 0 0 0 0
0 0 0 0 0 0 0 0 0 0 0 0 0 0 0 0 0 0 0 0 0 0 0 0 0 0 0 0 0 0 0 0 0 0 0 0 0 0 0 0 0 0 0 0
0 0 0 0 0 0 0 0 0 0 0 0 0 0 0 0 0 0 0 0 0 0 0 0 0 0 0 0 0 0 0 0 0 0 0 0 0 0 0 0 0 0 0 0
0 0 0 0 0 0 0 0 0 0 0 0 0 0 0 0 0 0 0 0 0 0 0 0 0 0 0 0 0 0 0 0 0 0 0 0 0 0 0 0 0 0 0 0
0 0 0 0 0 0 0 0 0 0 0 0 0 0 0 0 0 0 0 0 0 0 0 0 0 0 0 0 0 0 0 0 0 0 0 0 0 0 0 0 0 0 0 0
Wind_Speed
6 6 5 7 8 9 11 10 10 10 11 12 9 9 8 8 8 8 8 8 8 8 8 7 6 6 5 5 4 4 4 4 4 5 5 6 6 6 6 7 7 7 8 8
5 3 4 8 10 11 12 11 12 14 14 8 7 6 7 8 8 9 9 9 9 9 9 8 8 7 6 5 5 4 4 5 5 5 5 6 6 6 6 7 7 7 8 8
4 2 4 8 8 10 8 8 8 10 8 6 7 8 8 8 8 8 9 9 9 9 9 9 8 7 7 5 4 4 5 5 5 5 6 6 6 6 7 7 7 8 8 8
2 2 8 2 1 4 6 7 7 8 7 7 9 10 9 7 7 8 9 9 9 8 9 9 8 7 6 5 4 5 5 5 5 5 6 7 7 7 7 7 7 8 8 9
3 5 7 3 2 3 5 6 5 7 8 7 7 8 5 3 5 7 8 9 8 8 8 8 8 6 6 5 5 5 5 6 6 6 7 7 7 7 7 7 7 8 8 8
4 6 7 1 2 1 2 5 2 3 6 6 5 6 5 5 7 9 8 8 8 8 8 7 7 6 5 6 5 6 6 7 7 6 7 7 8 8 7 7 8 8 8 8
6 7 7 0 2 3 4 3 1 3 5 5 5 6 8 9 8 8 8 8 8 7 7 7 7 6 6 7 7 7 7 7 6 7 7 8 8 7 7 7 7 8 8 8
5 7 6 3 4 5 2 2 2 3 4 5 7 8 8 9 8 8 8 8 8 7 7 7 7 6 7 8 8 7 7 7 6 6 6 6 7 6 6 6 7 7 7 7
6 5 2 3 3 2 1 3 4 4 5 5 6 7 8 8 8 8 8 7 7 7 8 8 7 6 7 8 8 7 7 7 7 6 6 6 6 6 5 5 5 5 5 5
5 6 5 4 4 4 4 5 5 5 5 5 6 7 8 7 7 7 7 7 7 7 8 8 8 7 7 8 7 6 7 7 7 6 6 6 5 4 4 5 5 5 5 5
6 6 5 5 5 5 5 4 5 5 5 5 6 7 7 7 7 7 7 7 6 7 8 9 9 8 8 7 7 7 7 7 7 6 6 5 5 4 5 5 5 6 5 5
5 3 4 5 4 4 4 5 5 5 5 5 5 6 7 6 6 7 7 7 7 7 8 8 8 8 8 7 7 7 7 7 6 5 5 5 5 5 6 7 9 10 10 9
5 4 5 5 4 4 4 5 5 5 5 6 5 5 6 6 6 6 7 7 7 7 8 8 8 7 7 7 7 6 7 7 6 5 5 5 5 5 5 6 7 8 9 10
4 3 4 3 4 4 4 5 4 4 4 4 4 5 5 5 6 6 7 7 7 7 7 7 7 7 7 7 7 7 7 7 6 5 5 6 5 5 4 5 6 5 6 8
3 4 4 4 4 4 4 3 4 4 4 4 4 4 5 5 6 7 7 7 7 7 7 7 7 7 7 7 7 7 6 5 5 5 5 5 5 5 4 5 5 4 4 5
4 3 3 4 5 5 4 4 4 5 5 5 5 5 5 6 6 7 7 6 6 7 7 7 7 7 7 7 7 5 5 8 7 5 5 5 5 5 4 4 4 4 4 4
2 3 4 5 6 5 5 4 5 5 5 5 6 6 6 6 6 6 6 6 6 6 6 6 7 7 7 6 6 5 5 6 7 5 4 5 5 5 5 4 4 4 4 5
4 4 4 5 5 5 6 5 5 5 5 5 5 5 5 5 6 7 7 7 6 6 6 6 7 7 6 6 5 5 4 4 4 4 4 4 5 4 4 4 4 5 4 5
4 4 4 4 4 4 5 5 5 5 5 4 5 5 5 6 6 6 6 6 6 6 6 7 9 7 6 7 6 4 4 4 4 4 4 6 5 4 4 4 4 4 4 4
4 4 4 4 4 3 4 4 5 5 4 4 4 5 5 5 5 5 6 5 4 5 7 8 7 6 6 6 6 4 4 4 4 4 4 4 4 4 4 4 5 5 4 4
4 4 4 4 4 4 4 4 4 4 4 4 4 5 5 6 5 5 5 5 5 6 7 8 6 5 5 5 5 4 4 4 4 4 4 4 4 4 4 4 4 4 4 4
4 3 4 4 4 4 4 3 4 4 4 4 4 4 4 5 5 5 4 4 6 8 6 5 5 6 7 6 3 3 4 4 3 3 3 3 4 4 4 4 4 4 4 4
3 3 3 3 3 4 4 3 3 3 4 4 4 4 4 5 4 4 5 4 5 8 6 5 7 9 9 5 3 4 4 4 3 3 3 3 3 4 4 4 4 4 4 4
3 3 3 3 3 3 4 4 4 3 4 4 4 4 4 4 4 3 4 8 9 9 5 7 9 9 8 3 3 4 4 3 3 3 4 3 3 3 3 4 4 4 4 5
2 2 2 2 2 2 3 4 4 4 4 4 5 5 4 3 4 5 5 6 8 8 5 7 9 9 5 3 4 4 4 4 4 4 3 3 3 4 4 4 4 4 4 4
2 2 2 2 2 3 3 3 3 3 4 4 4 4 4 4 4 5 5 5 7 7 6 5 5 5 4 4 4 4 4 4 4 4 4 4 4 4 4 4 5 4 4 4
2 2 2 2 2 2 2 3 3 4 4 4 4 4 4 5 4 5 5 5 5 5 5 4 4 4 4 4 4 4 4 4 4 4 4 4 4 4 4 5 4 4 4 4
Wind_Direction
274 282 259 251 243 225 226 236 247 264 267 280 299 303 306 307 311 312 314 317 317 315 313 312 308 300 294 292 292 285 278 276 278 282 280 276 276 274 268 262 261 260 259 258
268 267 263 265 252 238 238 243 252 268 276 293 305 305 303 302 307 307 310 313 316 316 314 311 307 299 297 293 289 281 274 278 281 280 279 274 276 275 273 267 263 262 258 257
257 314 283 259 238 220 227 228 233 252 274 318 309 304 302 300 302 300 305 308 312 314 311 308 304 295 288 282 284 281 277 278 280 281 280 280 278 275 273 271 265 261 259 257
262 259 241 269 72 213 227 245 240 262 285 298 302 301 290 283 290 300 306 307 309 310 309 307 306 300 290 286 277 275 276 278 278 279 281 283 278 273 273 272 267 261 259 258
226 253 267 267 212 192 220 259 235 250 278 302 318 302 283 279 297 303 306 305 305 307 307 309 307 306 302 291 281 277 276 279 281 282 281 280 277 274 273 271 269 265 262 259
218 245 253 287 98 144 201 257 194 245 278 301 316 302 321 334 318 312 313 312 312 315 314 314 317 315 308 301 293 286 286 285 283 280 276 275 275 274 272 269 267 268 264 261
227 246 265 15 143 171 225 300 2 267 276 280 277 283 310 316 313 312 314 314 316 317 316 318 320 318 310 306 299 298 294 288 285 282 279 276 275 273 271 270 269 266 267 265
207 229 251 129 158 209 276 0 286 283 283 281 283 294 303 308 311 316 319 320 322 320 319 321 322 320 312 310 309 308 302 295 290 288 286 282 279 276 272 269 268 266 266 270
214 234 334 179 214 261 302 276 283 286 283 279 286 295 303 307 310 312 314 316 320 320 318 322 324 320 311 312 316 312 307 302 299 297 293 288 282 280 278 271 268 269 265 268
254 262 270 257 268 278 276 276 282 282 281 276 281 292 300 304 308 311 313 316 318 318 317 319 323 321 313 316 319 315 311 309 308 305 301 299 291 282 277 275 274 278 274 270
259 281 296 267 255 269 281 283 285 287 282 277 279 288 295 300 304 307 311 314 315 313 312 314 319 320 321 323 325 320 316 314 314 310 305 302 297 289 285 280 278 281 281 277
255 265 262 282 289 273 276 282 285 290 296 292 284 284 294 296 299 303 307 311 313 313 312 314 318 319 323 326 326 321 318 318 316 312 310 307 305 304 298 292 299 295 292 289
270 292 278 285 292 287 281 287 293 286 285 292 295 292 295 299 303 305 307 310 311 311 311 313 316 319 325 328 325 319 315 314 313 315 314 311 308 307 308 313 312 305 304 303
276 289 282 284 294 304 300 302 304 299 295 295 298 301 301 303 305 307 309 311 311 310 311 314 316 320 327 327 322 318 313 311 314 312 312 310 309 308 305 308 311 310 312 313
287 279 276 296 305 309 313 312 308 306 312 313 309 305 306 306 306 307 310 313 313 311 314 317 317 321 327 324 320 317 314 314 315 313 313 311 312 312 309 307 306 312 318 325
296 298 304 307 306 312 312 303 296 300 308 310 309 308 306 303 303 304 309 313 311 312 315 315 315 320 324 322 319 314 310 317 321 317 316 317 319 321 320 318 319 326 332 337
299 301 304 303 302 304 301 293 287 293 299 300 303 308 309 309 309 311 315 317 309 303 305 309 312 317 320 319 317 314 316 319 324 323 322 322 323 323 323 323 327 332 335 339
274 278 275 278 281 290 296 297 293 293 294 298 305 307 306 307 307 310 314 316 314 310 311 314 315 318 319 320 318 316 319 321 323 323 324 325 326 326 326 330 336 338 338 338
292 291 292 290 289 286 289 293 296 297 298 300 300 299 299 299 300 305 311 312 311 313 320 321 323 324 321 322 325 317 321 322 322 322 322 325 329 330 334 337 338 337 339 343
306 305 303 304 305 297 295 298 300 299 301 301 298 298 302 306 308 309 307 300 300 307 311 315 319 318 319 321 326 321 321 321 323 324 325 328 331 335 336 337 337 338 340 342
309 310 309 308 308 307 303 301 298 299 304 303 297 299 303 307 309 307 305 307 318 322 318 320 323 321 321 323 323 319 319 320 321 323 327 329 330 331 333 334 336 337 336 336
309 306 307 309 309 313 317 312 305 304 309 310 308 306 307 312 317 313 298 296 312 322 322 319 323 327 330 329 325 325 324 324 323 324 324 325 326 327 328 330 329 330 330 331
304 302 305 308 310 314 321 323 318 315 315 314 315 314 312 312 314 312 314 319 318 322 323 321 326 331 335 337 329 326 325 324 323 322 320 320 319 319 319 320 320 322 323 326
309 311 314 319 321 323 327 330 328 323 318 314 316 316 314 316 316 311 305 315 324 325 322 326 333 335 338 336 329 325 322 321 319 317 316 317 316 316 315 314 314 316 318 319
317 318 323 327 327 321 319 323 326 328 328 323 324 326 322 313 307 314 318 318 323 327 324 328 334 338 339 328 326 323 321 320 318 315 313 313 312 311 309 309 310 311 312 313
322 323 320 314 311 314 317 318 319 321 323 323 325 326 327 323 316 314 316 320 324 327 328 326 329 333 330 326 324 322 320 319 320 320 314 310 308 307 305 307 308 307 307 309
333 332 325 328 331 325 318 314 312 315 317 315 314 319 324 323 323 323 323 322 324 324 323 324 325 325 324 323 322 321 318 317 317 315 313 309 305 302 303 303 302 304 307 308